EW5549 Weather Reports


Display with metric or nautical units.
time (UTC)temp
F
wind
direction
speed
MPH
gust
MPH
rain 1hr
in
rain 24hr
in
rain mn
in
humidity
%
barometer
mb
20260504120318 42 327 1.0 2.0 0.00 0.00 0.00 65 1016.7
20260504110242 44 5 1.0 2.0 0.00 0.00 0.00 61 1016.7
20260504100200 48 355 6.0 7.0 0.00 0.00 0.00 51 1015.8
20260504090122 51 313 4.0 5.0 0.00 0.00 0.00 52 1014.7
20260504081552 52 15 8.0 9.0 0.00 0.00 0.00 51 1012.6
20260504081048 46 316 1.0 2.0 0.00 0.00 0.00 57 1012.9
20260504080545 45 328 1.0 1.0 0.00 0.00 0.00 64 1012.6
20260504050358 57 340 0.0 0.0 0.00 0.00 0.00 33 1011.1
20260504045855 57 340 0.0 0.0 0.00 0.00 0.00 31 1010.9
20260504045350 58 275 1.0 1.0 0.00 0.00 0.00 31 1010.8
20260504044847 57 223 0.0 0.0 0.00 0.00 0.00 32 1011.0
20260504044344 57 228 2.0 2.0 0.00 0.00 0.00 33 1010.9
20260504043842 56 250 2.0 2.0 0.00 0.00 0.00 34 1010.9
20260504043338 55 7 0.0 0.0 0.00 0.00 0.00 36 1011.0
20260504042836 55 20 0.0 0.0 0.00 0.00 0.00 37 1010.8
20260504042332 56 1 0.0 0.0 0.00 0.00 0.00 36 1010.7
20260504041828 56 322 0.0 0.0 0.00 0.00 0.00 36 1010.8
20260504041325 56 349 0.0 0.0 0.00 0.00 0.00 37 1010.7
20260504040821 57 2 0.0 1.0 0.00 0.00 0.00 35 1011.0
20260504040319 57 345 1.0 1.0 0.00 0.00 0.00 36 1010.9
20260504035814 56 139 0.0 1.0 0.00 0.00 0.00 37 1010.6
20260504035312 55 153 3.0 3.0 0.00 0.00 0.00 40 1010.5
20260504034809 55 25 0.0 0.0 0.00 0.00 0.00 40 1010.2
20260504034307 57 26 2.0 2.0 0.00 0.00 0.00 37 1010.5
20260504033804 57 358 1.0 2.0 0.00 0.00 0.00 36 1010.3
20260504033301 57 338 2.0 2.0 0.00 0.00 0.00 37 1010.2
20260504032758 60 345 2.0 2.0 0.00 0.00 0.00 37 1010.3
20260504032255 64 294 5.0 7.0 0.00 0.00 0.00 28 1010.1
20260504031751 64 260 7.0 8.0 0.00 0.00 0.00 27 1010.1
20260504031249 64 276 7.0 8.0 0.00 0.00 0.00 28 1009.9
20260504030745 65 282 9.0 11.0 0.00 0.00 0.00 27 1010.1
20260504030242 66 275 10.0 11.0 0.00 0.00 0.00 27 1010.0
20260504025738 64 280 9.0 10.0 0.00 0.00 0.00 27 1009.9
20260504025236 63 301 7.0 7.0 0.00 0.00 0.00 31 1009.9
20260504024732 63 298 5.0 6.0 0.00 0.00 0.00 32 1010.0
20260504024229 63 294 9.0 10.0 0.00 0.00 0.00 30 1010.0
20260504023726 63 301 7.0 9.0 0.00 0.00 0.00 33 1009.8
20260504023222 64 312 6.0 7.0 0.00 0.00 0.00 33 1009.7
20260504022718 64 295 7.0 9.0 0.00 0.00 0.00 32 1009.4
20260504022215 65 288 8.0 9.0 0.00 0.00 0.00 30 1009.7
20260504021712 66 281 7.0 8.0 0.00 0.00 0.00 31 1009.8
20260504021209 66 326 7.0 7.0 0.00 0.00 0.00 30 1009.7
20260504020706 66 295 9.0 9.0 0.00 0.00 0.00 30 1009.8
20260504020202 67 301 7.0 8.0 0.00 0.00 0.00 29 1009.8
20260504015658 68 294 9.0 10.0 0.00 0.00 0.00 27 1009.8
20260504015154 68 295 6.0 7.0 0.00 0.00 0.00 28 1009.6
20260504014650 68 294 6.0 8.0 0.00 0.00 0.00 29 1009.6
20260504014148 69 305 6.0 8.0 0.00 0.00 0.00 28 1009.8
20260504013646 70 308 9.0 10.0 0.00 0.00 0.00 26 1009.6
20260504013142 71 318 7.0 8.0 0.00 0.00 0.00 25 1009.8
20260504012639 71 319 8.0 9.0 0.00 0.00 0.00 25 1009.9
20260504012137 71 279 8.0 10.0 0.00 0.00 0.00 24 1009.7
20260504011634 71 305 8.0 9.0 0.00 0.00 0.00 25 1009.7
20260504011130 71 271 9.0 10.0 0.00 0.00 0.00 26 1009.9
20260504010626 72 298 10.0 11.0 0.00 0.00 0.00 26 1009.8
20260504010122 73 297 8.0 8.0 0.00 0.00 0.00 27 1009.9
20260504005619 73 303 7.0 9.0 0.00 0.00 0.00 27 1009.8
20260504005116 73 321 6.0 7.0 0.00 0.00 0.00 28 1009.8
20260504004614 73 312 8.0 9.0 0.00 0.00 0.00 24 1009.8
20260504004111 73 293 7.0 9.0 0.00 0.00 0.00 25 1009.8
20260504003607 73 290 6.0 7.0 0.00 0.00 0.00 27 1010.0
20260504003104 74 289 8.0 8.0 0.00 0.00 0.00 27 1010.2
20260504002601 74 287 10.0 11.0 0.00 0.00 0.00 26 1010.1
20260504002058 74 296 8.0 9.0 0.00 0.00 0.00 26 1010.0
20260504001556 74 310 8.0 9.0 0.00 0.00 0.00 27 1010.0
20260504001052 74 317 7.0 10.0 0.00 0.00 0.00 25 1010.3
20260504000549 75 28 5.0 8.0 0.00 0.00 0.00 24 1010.1
20260504000046 75 322 9.0 11.0 0.00 0.00 0.00 26 1010.1
20260503235545 75 306 7.0 8.0 0.00 0.00 0.00 25 1010.3
20260503235041 75 316 5.0 7.0 0.00 0.00 0.00 24 1010.5
20260503234539 75 345 4.0 6.0 0.00 0.00 0.00 23 1010.1
20260503234037 75 350 6.0 7.0 0.00 0.00 0.00 25 1010.2
20260503233533 75 300 9.0 11.0 0.00 0.00 0.00 24 1010.2
20260503233029 75 332 10.0 13.0 0.00 0.00 0.00 23 1010.3
20260503232526 75 342 7.0 10.0 0.00 0.00 0.00 22 1010.2
20260503232024 75 292 10.0 11.0 0.00 0.00 0.00 22 1010.3
20260503231522 75 285 10.0 10.0 0.00 0.00 0.00 22 1010.5
20260503231018 75 317 3.0 5.0 0.00 0.00 0.00 22 1010.5
20260503230515 74 346 5.0 6.0 0.00 0.00 0.00 22 1010.7
20260503230012 74 236 5.0 5.0 0.00 0.00 0.00 21 1010.7
20260503225509 75 310 7.0 8.0 0.00 0.00 0.00 24 1010.8
20260503225004 75 326 3.0 5.0 0.00 0.00 0.00 24 1010.8
20260503224502 75 288 3.0 5.0 0.00 0.00 0.00 22 1010.7
20260503223959 75 256 7.0 8.0 0.00 0.00 0.00 22 1010.9
20260503223457 74 281 8.0 9.0 0.00 0.00 0.00 21 1010.9
20260503222952 75 288 8.0 10.0 0.00 0.00 0.00 22 1011.0
20260503222451 75 297 15.0 16.0 0.00 0.00 0.00 23 1011.0
20260503221949 75 309 7.0 9.0 0.00 0.00 0.00 22 1011.2
20260503221447 75 313 4.0 6.0 0.00 0.00 0.00 22 1011.0
20260503220943 74 289 11.0 11.0 0.00 0.00 0.00 22 1011.2
20260503220439 75 302 10.0 11.0 0.00 0.00 0.00 23 1011.1
20260503215937 74 328 3.0 3.0 0.00 0.00 0.00 23 1011.5
20260503215433 74 294 7.0 9.0 0.00 0.00 0.00 23 1011.6
20260503214931 74 277 6.0 6.0 0.00 0.00 0.00 26 1011.5
20260503214429 74 254 6.0 8.0 0.00 0.00 0.00 27 1011.6
20260503213926 74 281 10.0 10.0 0.00 0.00 0.00 28 1011.7
20260503213424 76 294 4.0 7.0 0.00 0.00 0.00 27 1011.7
20260503212920 75 229 4.0 5.0 0.00 0.00 0.00 28 1011.7
20260503212418 75 333 0.0 0.0 0.00 0.00 0.00 27 1011.9
20260503211915 74 295 7.0 8.0 0.00 0.00 0.00 27 1011.8
20260503211412 74 272 5.0 6.0 0.00 0.00 0.00 26 1012.2
20260503210907 74 148 2.0 2.0 0.00 0.00 0.00 28 1012.0
20260503210404 74 65 4.0 5.0 0.00 0.00 0.00 31 1012.2
20260503205859 74 17 4.0 5.0 0.00 0.00 0.00 29 1012.4
20260503205356 74 355 2.0 3.0 0.00 0.00 0.00 30 1012.5
20260503204852 74 96 4.0 5.0 0.00 0.00 0.00 29 1012.6
20260503204349 74 354 3.0 5.0 0.00 0.00 0.00 29 1012.6
20260503203847 73 318 4.0 5.0 0.00 0.00 0.00 31 1012.6
20260503203344 73 29 4.0 6.0 0.00 0.00 0.00 30 1012.8
20260503202841 74 60 4.0 5.0 0.00 0.00 0.00 30 1012.7
20260503202339 73 138 4.0 5.0 0.00 0.00 0.00 29 1012.9
20260503201838 72 61 1.0 1.0 0.00 0.00 0.00 33 1012.9
20260503201334 72 10 2.0 3.0 0.00 0.00 0.00 28 1013.1
20260503200832 71 292 1.0 2.0 0.00 0.00 0.00 28 1013.1
20260503200327 72 18 1.0 2.0 0.00 0.00 0.00 34 1013.0
20260503195825 72 127 4.0 5.0 0.00 0.00 0.00 33 1013.1
20260503195321 72 66 1.0 1.0 0.00 0.00 0.00 35 1013.2
20260503194819 72 78 2.0 3.0 0.00 0.00 0.00 34 1013.5
20260503194314 71 300 6.0 7.0 0.00 0.00 0.00 34 1013.4
20260503193811 71 267 2.0 2.0 0.00 0.00 0.00 37 1013.6
20260503193307 72 27 1.0 1.0 0.00 0.00 0.00 32 1013.8
20260503192803 70 334 1.0 2.0 0.00 0.00 0.00 34 1013.8
20260503192258 71 278 7.0 8.0 0.00 0.00 0.00 34 1013.9
20260503191755 70 318 3.0 5.0 0.00 0.00 0.00 34 1013.8
20260503191252 70 51 2.0 2.0 0.00 0.00 0.00 34 1013.9
20260503190748 70 273 6.0 7.0 0.00 0.00 0.00 35 1013.9
20260503190245 70 51 2.0 2.0 0.00 0.00 0.00 35 1014.4
20260503185743 70 64 2.0 3.0 0.00 0.00 0.00 37 1014.2
20260503185238 70 22 1.0 1.0 0.00 0.00 0.00 38 1014.4
20260503184733 68 63 2.0 2.0 0.00 0.00 0.00 38 1014.2
20260503184230 68 91 2.0 3.0 0.00 0.00 0.00 38 1014.6
20260503183726 68 147 4.0 5.0 0.00 0.00 0.00 37 1014.6
20260503183223 69 261 1.0 2.0 0.00 0.00 0.00 37 1014.9
20260503182721 69 55 1.0 2.0 0.00 0.00 0.00 39 1014.8
20260503182220 69 63 1.0 1.0 0.00 0.00 0.00 39 1014.9
20260503181716 68 22 1.0 1.0 0.00 0.00 0.00 41 1014.8
20260503181213 68 98 0.0 1.0 0.00 0.00 0.00 38 1015.0
20260503180709 67 55 1.0 1.0 0.00 0.00 0.00 41 1015.0
20260503180208 66 86 1.0 2.0 0.00 0.00 0.00 41 1015.3
20260503175704 66 354 2.0 2.0 0.00 0.00 0.00 40 1015.5
20260503175202 67 75 2.0 3.0 0.00 0.00 0.00 40 1015.6
20260503174658 65 20 1.0 1.0 0.00 0.00 0.00 43 1015.6
20260503174156 64 84 4.0 5.0 0.00 0.00 0.00 43 1015.8
20260503173650 64 39 0.0 0.0 0.00 0.00 0.00 42 1015.8
20260503173147 64 77 4.0 5.0 0.00 0.00 0.00 43 1015.9
20260503172644 64 101 1.0 2.0 0.00 0.00 0.00 44 1016.1
20260503172141 63 59 0.0 1.0 0.00 0.00 0.00 46 1016.0
20260503171637 64 116 4.0 5.0 0.00 0.00 0.00 44 1016.3
20260503171135 64 55 2.0 2.0 0.00 0.00 0.00 48 1016.4
20260503170632 62 50 1.0 2.0 0.00 0.00 0.00 50 1016.3
20260503170129 62 30 1.0 1.0 0.00 0.00 0.00 52 1016.3
20260503150520 51 294 0.0 0.0 0.00 0.00 0.00 64 1017.5
20260503131413 41 38 0.0 0.0 0.00 0.00 0.00 82 1017.8
20260503130910 41 30 0.0 0.0 0.00 0.00 0.00 83 1017.7
20260503130408 40 288 0.0 0.0 0.00 0.00 0.00 83 1017.6